DECAYED

STARLINK-11143, 59953 (Decayed)

Orbit data source: Space-Track

STARLINK-11143, 59953 was a payload satellite owned by SpaceX/Seattle (US) in LEO that was launched on Wed, 05 Jun 2024 UTC via an FALCON 9 launch vehicle from the Air Force Eastern Test Range (AFETR). Payload-class satellites include a variety of spacecraft equipped with specific instruments for various scientific and technological missions. These include communications satellites like Starlink; space stations such as the ISS; scientific satellites like the Hubble; Earth observation satellites from companies like Planet Labs, Umbra, and HawkEye 360; GPS; miniature CubeSats for education and research; and military/defense satellites.

Not visible in the next 10 days
Identifier
59953, 2024-107J
Orbit
Decayed
Country
Flag of USUS
Related business
Manufacturer
SpaceX/Seattle
Mission
Decayed Commercial Communications
Bus & Motor
STARLINK V2MD, Unknown motor
Mass
960 kg wet, ~910 kg dry
Launch date (UTC)
2024-06-05 (2 years ago)
Launch vehicle
FALCON 9
Launch site
Air Force Eastern Test Range (AFETR)
Object type
Payload
Rocket body
Debris
Shape & HBR
Box + 2 Pan, 18.1 m
Radar Cross Section
36.964 m², Large (>1 m²)

Expand to show TLE details & history
Last TLE update: 4 months ago

TLE from 4 months ago
0 STARLINK-11143
1 59953U 24107J   26039.46582897  .15774788  11974-4  38496-2 0  9999
2 59953  53.1316  28.4993 0005778 132.8256   1.7511 16.28535631 97642
Epoch: 2026-02-08T11:10Z
TLE epoch observation values (Epoch: 2026-02-08T11:10:47.623Z)
Latitude
34.85623°
Longitude
-129.06113°
Altitude
195.224 km
Speed
7.796 km/s
True Right ascension
11h 48m 50s
True Declination
34° 40' 53"
Sunlit
Object was in full shadow at epoch
Visualization orbit readout
Latitude
Unknown
Longitude
Unknown
Altitude
Unknown
Speed
Unknown
Apparent Right ascension
Unknown
Apparent Declination
Unknown
Sunlit
N/A
Visualization observer readout
Local Sidereal Time
21:40:34
Azimuth
Unknown
Elevation
Unknown
Doppler factor
Unknown
Orbital elements
Apogee altitude
200.549 km
Perigee altitude
192.951 km
Semi-major axis
6,574.887 km
Eccentricity
0.00058
Inclination
53.1316°
RAAN
28.4993°
Arg. of periapsis
132.8256°
True anomaly
1.75312°
Mean anomaly
1.7511°
Eccentric anomaly
1.75211°
Mean motion
4.07109 °/min
Orbital period
88.43 mins
BSTAR
0.0038496
Loading maneuver chart data...
Computing Atmospheric mass density...
Loading historical data...
Loading historical data...
Loading historical data...
Loading historical data...
Loading historical data...
Loading historical data...
Loading historical data...

Documentation

Showing up to 5 results
|